Home   Weather   Al-Jamiliyah   Past weeks

Flag for Qatar Past Weather in Al-Jamiliyah, Qatar — Yesterday and Last 2 Weeks

Now
88 °F

Sunny.


Feels Like: 86 °F
Forecast: 77 / 93 °F
Wind: 2 mph from North

Location: Doha International Airport

Current Time: Apr 24, 2017 at 8:53:03 am

Latest Report: Apr 24, 2017 at 8:00 am


Visibility: 10 mi

Pressure: 29.77 "Hg

Humidity: 33%

Dew Point: 55 °F

Location of Al-JamiliyahLocation

Past Weather in Al-Jamiliyah — Graph

°F

Al-Jamiliyah Temperature Yesterday

Maximum temperature yesterday: 97 °F (at 11:00 am)
Minimum temperature yesterday: 75 °F (at 3:00 am)
Average temperature yesterday: 85 °F

High & Low Weather Summary for the Past Weeks

 TemperatureHumidityPressure
High140 °F (Apr 10, 8:00 am)74% (Apr 13, 6:00 am)29.98 "Hg (Apr 13, 6:00 am)
Low75 °F (Apr 15, 4:00 am)9% (Apr 10, 8:00 am)29.68 "Hg (Apr 16, 1:00 am)
Average86 °F41%29.82 "Hg
* Reported Apr 9 8:00 am — Apr 24 8:00 am, Al-Jamiliyah, Weather by CustomWeather, © 2017

Note: Actual official high and low records may vary slightly from our data, if they occured in-between our weather recording intervals... More about our weather records

Advertising

Al-Jamiliyah Weather History for the Previous 24 Hours

Scroll right to see more
 ConditionsComfort  
Time TempWeatherWind HumidityBarometerVisibility
8:00 am
Mon, Apr 24
88 °FSunny.2 mph33%29.77 "Hg10 mi
6:00 am75 °FSunny.2 mph39%29.77 "Hg10 mi
5:00 am77 °FClear.1 mph34%29.74 "Hg10 mi
4:00 am77 °FClear.No wind34%29.74 "Hg10 mi
3:00 am81 °FPassing clouds.3 mph28%29.71 "HgN/A
2:00 am79 °FClear.3 mph54%29.71 "Hg10 mi
1:00 am79 °FClear.1 mph54%29.71 "Hg10 mi
12:00 am77 °FClear.1 mph69%29.74 "Hg10 mi
11:00 pm
Sun, Apr 23
79 °FClear.2 mph65%29.77 "Hg10 mi
10:00 pm79 °FClear.5 mph65%29.77 "Hg10 mi
9:00 pm79 °FClear.6 mph70%29.77 "Hg10 mi
8:00 pm81 °FClear.5 mph62%29.77 "Hg10 mi
7:00 pm82 °FClear.6 mph58%29.77 "Hg10 mi
6:00 pm86 °FClear.7 mph49%29.77 "Hg10 mi
5:00 pm88 °FSunny.9 mph38%29.74 "Hg10 mi
4:00 pm90 °FSunny.12 mph29%29.74 "Hg10 mi
3:00 pm91 °FSunny.10 mph26%29.74 "Hg10 mi
2:00 pm93 °FPassing clouds.10 mph26%29.77 "HgN/A
1:00 pm95 °FPassing clouds.10 mph26%29.77 "HgN/A
12:00 pm97 °FPassing clouds.9 mph20%29.80 "HgN/A
11:00 am97 °FSunny.9 mph20%29.80 "Hg10 mi
10:00 am93 °FSunny.8 mph20%29.83 "Hg10 mi
9:00 am91 °FPassing clouds.7 mph20%29.83 "HgN/A
8:00 am90 °FSunny.3 mph26%29.83 "Hg10 mi
Weather by CustomWeather, © 2017

See weather overviewHow to use our weather pages